Tracking 31011 objects as of 11-Jul-2025
HD Live streaming from Space Station
objects crossing your sky now

CZ-6A DEB

Track CZ-6A DEB now!
10-day predictions


NORAD ID: 54444
Int'l Code: 2022-151FU
Perigee: 657.6 km
Apogee: 826.5 km
Inclination: 98.8 °
Period: 99.5 minutes
Semi major axis: 7113 km
RCS: Unknown
Launch date: November 11, 2022
Source: People's Republic of China (PRC)
Launch site: Taiyaun Space Center, China (TSC)

Note: This is SATELLITE DEBRIS
Your satellite tracking list
Your tracking list is empty




NASA's NSSDC Master Catalog

Two Line Element Set (TLE):
1 54444U 22151FU  25191.68759331  .00003345  00000-0  85198-3 0  9991
2 54444  98.7575 239.0872 0118761 189.9539 169.9299 14.47175951139533
Source of the keplerian elements: AFSPC